{"data":{"norad_id":59018,"intl_designator":"2024-036W","name":"STARLINK-31527","alt_names":[],"object_type":"PAYLOAD","status":"ACTIVE","operator":null,"country":"US","launch_date":"2024-02-23","launch_site_code":"AFWTR","launch_vehicle":null,"mission":null,"orbit_class":"UNKNOWN","rcs_meters":null,"size_class":null,"mass_kg":null,"dimensions":null,"purposes":["comms"],"wikipedia_slug":null,"has_3d_model":false,"image_url":null,"decayed_at":null,"tle_current":{"epoch":"2026-09-20T08:29:03.804864Z","epoch_age_seconds":168215,"freshness":"FRESH","line1":"1 59018U 24036W   26263.35351626  .00000814  00000+0  35236-4 0  9993","line2":"2 59018  53.1584 252.0625 0001386  90.4661 269.6501 15.34387899145159","mean_motion":15.34387899,"eccentricity":0.0001386,"inclination_deg":53.1584,"raan_deg":252.0625,"arg_perigee_deg":90.4661,"mean_anomaly_deg":269.6501,"bstar":3.5236e-5,"rev_number":14515,"period_min":93.848498214727,"perigee_km":461.79106172334,"apogee_km":463.68735260797,"semimajor_km":6840.8762071657,"source":"CELESTRAK","updated_at":"2026-09-21T09:00:34.027448Z"}}}